GALAXY 37 (G-37)

Last updated on Tue Oct 08 2024 00:02:42 GMT+0000 (Coordinated Universal Time)

1 57493U 23112A 24281.28382681 .00000059 00000+0 00000+0 0 9994 2 57493 0.0049 217.8446 0002070 345.3892 148.3873 1.00272246 4347
UTC large
Height (km)
Speed (km/s)
/
Latitude / Longitude
Inclination (degrees)
Orbital Period (minutes)
Azimuth
Elevation
Range (km)
Doppler Factor

Next 0 passes for location: London (51.5072 / 0.1276)

Sorry there are no passes over London.